OBJECT AV, 69023

Orbit data source: Space-Track

You're viewing an Uncataloged Satellite

Recently launched and/or uncataloged satellites may have evolving metadata. Metadata may include but not limited to: Owner, Maufacturer, Bus, Motor, and Mission.

OBJECT AV, 69023 is a satellite in SSO that was launched on Sun, 03 May 2026 UTC launched from the Air Force Western Test Range (AFWTR). Unknown objects in Earth's orbit typically refer to objects detected orbiting the Earth but have not yet been identified or cataloged. These objects could be anything from previously untracked satellites, spent rocket stages, debris from satellite collisions, or even natural meteoroids temporarily captured by Earth's gravity.

Loading next visibility...
Identifier
69023, 2026-100AV
Orbit
SSO
Country
Flag of TBDTBD
Related business
None
Manufacturer
Unknown
Mission
Operational spacecraft
Bus & Motor
Unknown
Mass
Unknown
Launch date (UTC)
2026-05-03 (1 week ago)
Launch vehicle
Unknown
Launch site
Air Force Western Test Range (AFWTR)
Object type
Unknown
Shape & HBR
Unknown
Radar Cross Section
RCS unknown

Expand to show TLE details & history
Last TLE update: 12 hours ago

TLE from 12 hours ago
0 OBJECT AV
1 69023U 26100AV  26129.98380979  .00005362  00000-0  25447-3 0  9993
2 69023  97.4102  28.4942 0004768 114.5284 245.6448 15.19663964  1008
Epoch: 2026-05-09T23:36Z
TLE epoch observation values (Epoch: 2026-05-09T23:36:41.165Z)
Latitude
-0.00009°
Longitude
166.52928°
Altitude
511.301 km
Speed
7.607 km/s
True Right ascension
01h 53m 58s
True Declination
0° 00' 00"
Sunlit
Object was in daylight at epoch
Visualization orbit readout
Latitude
Unknown
Longitude
Unknown
Altitude
Unknown
Speed
Unknown
Apparent Right ascension
Unknown
Apparent Declination
Unknown
Sunlit
N/A
Visualization observer readout
Local Sidereal Time
19:48:35
Azimuth
Unknown
Elevation
Unknown
Doppler factor
Unknown
Orbital elements
Apogee altitude
507.103 km
Perigee altitude
500.541 km
Semi-major axis
6,881.959 km
Eccentricity
0.00048
Inclination
97.4102°
RAAN
28.4942°
Arg. of periapsis
114.5284°
True anomaly
245.59504°
Mean anomaly
245.6448°
Eccentric anomaly
245.61992°
Mean motion
3.80168 °/min
Orbital period
94.7 mins
BSTAR
0.00025447
Loading maneuver chart data...
Computing Atmospheric mass density...
Loading historical data...
Loading historical data...
Loading historical data...
Loading historical data...
Loading historical data...
Loading historical data...
Loading historical data...

Documentation

Showing up to 5 results
|